Race Coverage Navigation

TS # 15 / Durango, CO  2019

 


TS STATS
TS Distance 44.18 
Total Distance 928.41 
Miles To Go 2141.87 
TS Climbing 879 
Total Climbing
TS  Elevation
TS  Net Elevation 1380 
Map Filename Open Map 
Directions Filename  
Latitude 37.26 
Longitude -107.88 
Google Map  TimeStation Map 


TS Arrival Data
Arr Ord  #/Name Arrival DT Ascending TS Dst Avg This TS Avg Overall
 1 R404 - Team Viasat - Carlsbad  06/13/2019 11:12 44.18  16.16  21 
 2 R403 - Team Viasat-Denver  06/13/2019 13:39 44.18  20.08  19.91 
 3 R401 - San Diego Sports Medicine/Zoca  06/13/2019 17:57 44.18  17.91  18.24 
 4 377 - Christoph Strasser  06/13/2019 18:56 44.18  17.44  18.46 
 5 R400 - HTX Velo Femme  06/13/2019 19:51 44.18  16.26  17.59 
 6 R200 - EY Legacy Builders 2019  06/13/2019 19:58 44.18  18.54  17.59 
 7 R205 - Team OB2  06/13/2019 20:37 44.18  17.33  17.36 
 8 R402 - SUWOS  06/14/2019 2:57 44.18  11.05  15.5 
 9 279 - Marko Baloh  06/14/2019 3:13 44.18  11.53  15.85 
 10 612 - Markus K. Brandl  06/14/2019 5:40 44.18  12.39  15.13 
 11 609 - Jakob Olsen  06/14/2019 6:16 44.18  9.93  14.99 
 12 R203 - Mike 'n' Jay Giretto con Amici  06/14/2019 7:13 44.18  11.53  14.49 
 13 617 - SOLO.kiwi (Craig Harper)  06/14/2019 7:49 44.18  9.05  14.6 
 14 R201 - IN OUR PRIME  06/14/2019 8:16 44.18  10.52  14.26 
 15 288 - Dave Haase  06/14/2019 8:18 44.18  8.21  14.58 
 16 R209 - Workhorses  06/14/2019 8:49 44.18  11  14.12 
 17 529 - Isa Pulver  06/14/2019 9:28 44.18  8.96  14.2 
 18 349 - Mark Pattinson  06/14/2019 9:57 44.18  13.46  14.2 
 19 R111 - Jennifer Orr  06/14/2019 11:47 44.18  9.4  13.55 
 20 329 - Peter Oyler  06/14/2019 13:09 44.18  10.78  13.54 
 21 622 - Thomas Odom-Team Kyle Pease Foundation  06/14/2019 13:34 44.18  11.83  13.38 
 22 442 - Joe Barr  06/14/2019 14:31 44.18  10.95  13.26 
 23 603 - Alan Bradley  06/14/2019 14:55 44.18  11.33  13.16 
 24 R124 - Andres Rodriguez  06/14/2019 15:17 44.18  6.28  12.9 
 25 623 - Ultra Paka Racing Team (Daniel Polman)  06/14/2019 16:15 44.18  12.22  12.88 
 26 416 - Leah Goldstein  06/14/2019 17:00 44.18  14.81  12.74 
 27 R120 - Team Next Step (Peter Pedersen)  06/14/2019 17:56 44.18  11.89  12.45 
 28 568 - Alexandra Meixner  06/14/2019 18:05 44.18  11.73  12.54 
 29 604 - Chieko Ozawa  06/14/2019 18:18 44.18  15.23  12.5 
 30 615 - Philipp Amhof  06/14/2019 18:32 44.18  7.53  12.5 
 31 367 - Daniela Genovesi  06/14/2019 19:45 44.18  11.63  12.28 
 32 R104 - Team everve Christian (Christian Beichel)  06/14/2019 19:51 44.18  11.63  12.16 
 33 R103 - Chris Davies  06/14/2019 20:59 44.18  12.33  11.99 
 34 411 - Geoff Brunner  06/14/2019 21:46 44.18  13.12  12.02 
 35 618 - GREGORY ROBINSON  06/14/2019 21:51 44.18  14.33  11.96 
 36 559 - Team Martin RAAM 2019 (Martin Bergmeister)  06/14/2019 22:05 44.18  13.25  11.96 
 37 510 - John C. Tarlton  06/14/2019 23:03 44.18  12.33  11.82 
 38 161 - Seana Hogan  06/14/2019 23:25 44.18  4.45  11.71 
 39 539 - Kari Rouvinen  06/14/2019 23:51 44.18  10.08  11.69 
 40 610 - Kabir Rachure  06/15/2019 0:24 44.18  10.82  11.6 
 41 611 - Marcelo Soares " MIXIRICA "  06/15/2019 1:48 44.18  6.92  11.39 
 42 R84 - James Jason Ingels  06/15/2019 2:12 44.18  9.37  11.24 
 43 399 - Valerio Zamboni  06/15/2019 4:10 44.18  11  11.11 
 44 424 - Team i RON man Veterans supporting Veterans  06/15/2019 4:41 44.18  9.11  11.03 
 45 R110 - James Golding  06/15/2019 6:00 44.18  6.63  10.73 
 46 R121 - Ironmae (Rosecler Costa)  06/15/2019 6:15 44.18  11.28  10.67 
 47 R117 - ROGIE (Roger Foote)  06/15/2019 6:54 44.18  9.67  10.61 
 48 R114 - Krishna Prakash  06/15/2019 7:27 44.18  8.26  10.55 
 49 R106 - Damaceleste.com (Valentina Tanzi)  06/15/2019 7:29 44.18  6.81  10.41 
 50 608 - Elin Starup  06/15/2019 7:35 44.18  7.64  10.6 
 51 R105 - 2nd Chance Racing (Craig Johnson)  06/15/2019 9:04 44.18  8.72  10.37 
 52 R122 - Kirk Gentle  06/15/2019 9:08 44.18  6.92  10.34 
 53 R115 - Kym Louie  06/15/2019 10:08 44.18  6.24  10.22 
 54 R119 - Team BlueLine (Martha Hall)  06/15/2019 10:11 44.18  7.62  10.21 
 55 527 - TALABARDON (Herve Talabardon)  06/15/2019 10:22 44.18  10.33 
 56 611 - Marcelo Soares " MIXIRICA "  06/15/2019 10:41 44.18  6.92  11.39 
 57 607 - Sabine Bird (Team Bean)  06/15/2019 11:04 44.18  8.84  10.2 
 58 R116 - Philippe May  06/15/2019 11:30 44.18  9.93  10.13 
 59 605 - Christian Echavarria  06/15/2019 13:56 44.18  7.09  9.92 
 60 563 - Team Nico Ultracycling - In Fight against Cancer   06/15/2019 17:21 44.18  8.87  9.58 
 61 T411 - team alpha - tischlerei groemmer  06/17/2019 9:10 44.18  21.73  22.2 
 62 T800 - Backstedt Racing Project 14  06/17/2019 10:14 44.18  15.5  21.72 
 63 T401 - Data Techniques powered by Networks Centre  06/17/2019 11:01 44.18  21.73  21.18 
 64 T404 - Gentlemen of speed  06/17/2019 12:04 44.18  17.79  20.71 
 65 T201 - EAT WELL  06/17/2019 13:48 44.18  16.26  19.84 
 66 T805 - Team Oceanside  06/17/2019 14:37 44.18  19.07  19.73 
 67 T407 - Julian Becker   06/17/2019 14:47 44.18  18.67  19.55 
 68 T412 - Team Aspect  06/17/2019 15:15 44.18  16.16  19.39 
 69 T807 - Team ZOE International  06/17/2019 15:16 44.18  21.04  19.48 
 70 T802 - Scorchers  06/17/2019 15:54 44.18  19.78  19.19 
 71 T416 - Team Rotary Raams Polio  06/17/2019 16:59 44.18  16.46  18.74 
 72 T408 - Radeln-fuer-Kinder (Cycling-for-Kids)  06/17/2019 17:35 44.18  15.59  18.46 
 73 T406 - Operation Walk Midwest  06/17/2019 17:42 44.18  14.98  18.41 
 74 T804 - Team FSHD Skyland Trail  06/17/2019 17:43 44.18  16.46  18.51 
 75 T400 - Cantastic4  06/17/2019 17:47 44.18  15.78  18.34 
 76 T808 - Antonia's Friends 2019  06/17/2019 17:50 44.18  16.67  18.49 
 77 T418 - The Opportunists  06/17/2019 19:31 44.18  17.33  17.84 
 78 T403 - EKJ Denmark  06/17/2019 20:16 44.18  15.15  17.5 
 79 T202 - Integra Medical - BAA Racing  06/17/2019 20:17 44.18  18.8  17.43 
 80 T414 - Brazil Nuts  06/17/2019 20:57 44.18  20.08  17.34 
 81 T410 - Soap-Aid  06/17/2019 21:00 44.18  17.21  17.3 
 82 T803 - Team EndoPark  06/17/2019 21:16 44.18  16.99  17.28 
 83 T405 - High Rollers  06/17/2019 21:54 44.18  15.23  16.99 
 84 T206 - Project Linear Acceleration  06/17/2019 22:01 44.18  15.78  16.91 
 85 T415 - TEAM FIRE VELO 935  06/17/2019 22:32 44.18  15.69  16.84 
 86 T204 - Lucan CRC  06/17/2019 23:13 44.18  13.95  16.53 
 87 T413 - TEAM BRASIL - SKIPPER  06/18/2019 0:53 44.18  14.49  16.15 
 88 T806 - Team SuperMarrow  06/18/2019 1:27 44.18  15.69  16.04 
 89 T402 - EA/WFP RAAM Team  06/18/2019 1:29 44.18  14.65  15.93 
 90 T417 - Team4RAAM 2019 powered by TGW Living Logistics  06/18/2019 2:13 44.18  16.46  15.8 
 91 T801 - Mind Over Matter  06/18/2019 3:13 44.18  13.59  15.55 
 92 T208 - Team Machine  06/18/2019 4:02 44.18  14.65  15.24 
 93 T200 - AIR RELAX GoPro TEAM BRASIL  06/18/2019 4:56 44.18  13.39  14.99 
 94 T205 - Prevent Breast Cancer powered by Endomag  06/18/2019 7:05 44.18  12.33  14.51 
 95 T207 - Team Life Time  06/18/2019 7:31 44.18  9.93  14.42 
 96 T203 - JPsDuo  06/18/2019 8:23 44.18  11.58  14.21 
 97 T409 - Serpentine Golden Girls  06/18/2019 9:09 44.18  12.39  14.1 
 98 T210 - Bike Wine Team  06/18/2019 11:34 44.18  11  13.57